SL-16 DEB, 18416

Orbit data source: Space-Track

SL-16 DEB, 18416 is space debris in LEO originally from a launch on Wed, 18 Mar 1987 UTC launched from the Tyuratam Missile And Space Complex (TTMTR). Debris objects in space refer to the collection of defunct objects orbiting the Earth. Examples of debris include non-operational satellites, rocket bodies, and fragments generated from explosions, collisions, or faulty payload assembly.

Loading next visibility...
Identifier
18416, 1987-027C
Orbit
LEO
Country
Flag of CISCIS
Related business
Manufacturer
Yuzhnoe
Mission
Spacecraft
Bus & Motor
SEP MOTOR COVER, Unknown motor
Mass
~0 kg wet, ~1 kg dry
Launch date (UTC)
1987-03-18 (39 years ago)
Launch vehicle
Unknown
Launch site
Tyuratam Missile And Space Complex (TTMTR)
Object type
Payload
Rocket body
Debris
Shape & HBR
Unknown shape, 0.2 m
Radar Cross Section
Small (<0.1 m²)

Expand to show TLE details & history
Last TLE update: 14 hours ago

TLE from 14 hours ago
0 SL-16 DEB
1 18416U 87027C   25350.00011767  .00000156  00000-0  17552-3 0  9996
2 18416  71.0356 258.1203 0187209 356.5646  94.2577 13.77513662946461
Epoch: 2025-12-16T00:00Z
TLE epoch observation values (Epoch: 2025-12-16T00:00:10.166Z)
Latitude
70.90644°
Longitude
-87.76856°
Altitude
997.203 km
Speed
7.353 km/s
True Right ascension
23h 48m 39s
True Declination
70° 48' 12"
Sunlit
Object was in daylight at epoch
Visualization orbit readout
Latitude
Unknown
Longitude
Unknown
Altitude
Unknown
Speed
Unknown
Apparent Right ascension
Unknown
Apparent Declination
Unknown
Sunlit
N/A
Visualization observer readout
Local Sidereal Time
12:36:21
Azimuth
Unknown
Elevation
Unknown
Doppler factor
Unknown
Orbital elements
Apogee altitude
1,108.252 km
Perigee altitude
833.1 km
Semi-major axis
7,348.813 km
Eccentricity
0.01872
Inclination
71.0356°
RAAN
258.1203°
Arg. of periapsis
356.5646°
True anomaly
96.39283°
Mean anomaly
94.2577°
Eccentric anomaly
95.3257°
Mean motion
3.44522 °/min
Orbital period
104.49 mins
BSTAR
0.00017552
Loading maneuver chart data...
Computing Atmospheric mass density...
Loading historical data...
Loading historical data...
Loading historical data...
Loading historical data...
Loading historical data...
Loading historical data...
Loading historical data...

Documentation

Showing up to 5 results
|